Regional Weather Roundup
Issued by NWS Newport/Morehead, NC

Current Version | Previous Version | Graphics & Text | Print | Product List | Glossary Off
Versions: 1 2 3 4 5 6 7 8 9 10 11 12 13 14 15 16 17 18 19 20 21 22 23 24 25 26 27 28 29 30 31 32 33 34 35 36 37 38 39 40 41 42 43 44 45 46 47 48 49 50

000
ASUS42 KMHX 240522
RWRMHX
WEATHER ROUNDUP FOR EASTERN NORTH CAROLINA
NATIONAL WEATHER SERVICE NEWPORT/MOREHEAD CITY NC
100 AM EDT FRI OCT 24 2014

NOTE: "FAIR" INDICATES FEW OR NO CLOUDS BELOW 12,000 FEET
WITH NO SIGNIFICANT WEATHER AND/OR OBSTRUCTIONS TO VISIBILITY

NCZ015>017-031-032-045>047-102-103-240600-
NORTH COAST

CITY           SKY/WX    TMP DP  RH WIND       PRES   REMARKS
EDENTON        CLEAR     55  49  82 NW7       29.96R
ELIZABETH CITY CLEAR     56  46  69 W10       29.94R
KITTY HAWK     CLEAR     60  48  65 NW9G22    29.91S
MANTEO         CLEAR     60  48  63 NW7       29.93S

$$

NCZ045>047-081-094-103-104-240600-
CENTRAL COAST

CITY           SKY/WX    TMP DP  RH WIND       PRES   REMARKS
FRISCO         MOCLDY    60  52  74 NW7       29.95R
SWANQUARTER    NOT AVBL

$$

NCZ095-097-098-100-101-240600-
SOUTHERN COAST

CITY           SKY/WX    TMP DP  RH WIND       PRES   REMARKS
BEAUFORT       CLEAR     57  50  77 NW9       29.98R
CEDAR ISLAND   NOT AVBL
JACKSONVILLE   CLEAR     51  47  86 W3        29.99S
PINEY ISLAND   CLEAR     61  51  70 NW6       29.96F
WILMINGTON     CLEAR     52  47  83 NW7       29.99F


$$

NCZ011>013-027>030-043-044-078>080-089-090>093-098-240600-
COASTAL PLAIN

CITY           SKY/WX    TMP DP  RH WIND       PRES   REMARKS
AHOSKIE        CLEAR     50  46  84 CALM      29.98S
CLINTON        CLEAR     50  48  95 CALM      30.01S
ELIZABETHTOWN  CLEAR     54  46  75 NW3       30.01R
GOLDSBORO      CLEAR     55  49  80 NW5       29.98S
GREENVILLE     CLEAR     52  46  82 CALM      30.00F
HAVELOCK       CLEAR     52  47  83 SW7       29.99S
KENANSVILLE    CLEAR     47  45  93 CALM      30.01S
KINSTON        CLEAR     53  46  79 NW5       30.00S
NEW BERN       CLEAR     52  46  80 S3        29.99S
RICHLANDS      CLEAR     46  43  87 CALM      30.00S
ROCKY MOUNT    CLEAR     53  44  71 W5        30.00F
WASHINGTON     CLEAR     51  46  84 CALM      29.98S
WHITEVILLE     CLEAR     50  46  87 CALM      30.00F

$$

AMZ130-135-150-152-154-156-158-170-250-252-270-ANZ085-086-088-633-658-670-240600-
MARINE OBSERVATIONS

STATION/POSITION TIME  TEMP    WIND        PRES    WAVE   SWELL
                       AIR SEA DIR/SP/G            HT/PER HT/PER
                 (UTC) (F)     (DEG/KT/KT) (MB)    (FT/S) (FT/S)
CHESAPEAKE LIGHT 0500   62     310/ 26/ 28 1013.1
64 E VA BEACH    0500   64 67  340/ 16/ 19 1011.0    7/ 9   5/ 9
DUCK             0500   59 66  290/ 15/ 17 1012.3
2 E DUCK         0500                        N/A     4/ 7
10 NE DUCK       0500      68                N/A     5/ 7
OREGON INLET     0500   59 64  270/  8/ 13 1013.2
13E OREGON INLT  0500      70                N/A     6/ 8   2/11
HATTERAS CG      0500   63 64  310/ 13/ 15 1014.3
DIAMOND BUOY     0500   64     320/ 16/ 19 1014.0    5/ 5   2/ 8
17 S OCRACOKE    NOT AVBL
CAPE LOOKOUT     0500   62     320/ 12/ 13 1014.8
BEAUFORT LAB     0500   58 67  320/  5/  9 1014.4
30 SE NEW RIVER  0500   68 75  330/ 16/ 17 1014.5    4/10   3/10
5 SE WRIGHTSVLE  0500   60 72  330/ 16/ 17   N/A
225 S CAPE HAT   0430   71 78  300/ 14/ 17 1015.4    6/10   5/10
41 SE CHARLESTON 0500   69 78  330/ 12/ 16 1016.2    3/11   2/11

$$



USA.gov is the U.S. government's official web portal to all federal, state and local government web resources and services.